View from above orbital plane
|
View from above satellite
|
Ground track
|
The orbit data is extracted from the following two-line orbital elements,
1 23851U 96024A 21015.63097277 -.00000260 00000-0 -15323-3 0 9997
2 23851 98.8117 338.2140 0006935 302.1735 57.8756 13.98097698261850
Epoch (UTC): | 15 January 2021 15:08:36 |
Eccentricity: | 0.0006935 |
inclination: | 98.8117° |
perigee height: | 895 km |
apogee height: | 905 km |
right ascension of ascending node: | 338.2140° |
argument of perigee: | 302.1735° |
revolutions per day: | 13.98097698 |
mean anomaly at epoch: | 57.8756° |
orbit number at epoch: | 26185 |
The dashed part of the orbit path shows where the satellite is in the earth's shadow,
|
|